This demonstration page uses our WeatherBlox Daily Observations layout. Learn more.

Hourly Observations for February 28, 2019

Temp ( °F °C ) Dew Point ( °F °C ) Humidity (%) Winds ( mph kmh ) Pressure ( in mb ) Visibility ( mi km ) Precip ( " mm )
12:54 am 00:54 Clear 7 -13.9 -1 -18.3 70 70 Calm 30.38 1029 10 16.0934 0 0
1:54 am 01:54 Clear 7 -13.9 0 -17.8 73 73 WNW 3 6 30.39 1029 10 16.0934 0 0
2:54 am 02:54 Mostly Clear 7 -13.9 1 -17.2 76 76 N 3 6 30.37 1029 10 16.0934 0 0
3:54 am 03:54 Cloudy 8 -13.3 1 -17.2 73 73 N 5 7 30.35 1028 10 16.0934 0 0
4:54 am 04:54 Cloudy 9 -12.8 2 -16.7 73 73 N 3 6 30.34 1027 10 16.0934 0 0
5:54 am 05:54 Clear 10 -12.2 2 -16.7 69 69 Calm 30.34 1028 10 16.0934 0 0
6:54 am 06:54 Cloudy 10 -12.2 2 -16.7 69 69 NNE 3 6 30.33 1027 10 16.0934 0 0
7:54 am 07:54 Mostly Cloudy 11 -11.7 2 -16.7 67 67 Calm 30.34 1027 10 16.0934 0 0
8:54 am 08:54 Cloudy 11 -11.7 2 -16.7 67 67 Calm 30.36 1028 10 16.0934 0 0
9:54 am 09:54 Cloudy 15 -9.4 3 -16.1 59 59 Calm 30.35 1028 10 16.0934 0 0
10:54 am 10:54 Cloudy 15 -9.4 4 -15.6 61 61 Calm 30.33 1027 10 16.0934 0 0
11:54 am 11:54 Sunny 19 -7.2 5 -15 54 54 Calm 30.31 1026 10 16.0934 0 0.0254
12:54 pm 12:54 Sunny 18 -7.8 4 -15.6 54 54 Calm 30.27 1025 10 16.0934 0 0.0254
1:54 pm 13:54 Sunny 21 -6.1 4 -15.6 47 47 Calm 30.22 1024 10 16.0934 0 0
2:54 pm 14:54 Sunny 20 -6.7 5 -15 52 52 SSW 7 11 30.21 1023 10 16.0934 0 0
3:54 pm 15:54 Sunny 21 -6.1 5 -15 50 50 W 5 7 30.2 1023 10 16.0934 0 0
4:54 pm 16:54 Sunny 20 -6.7 6 -14.4 55 55 SSW 6 9 30.2 1023 10 16.0934 0 0
5:54 pm 17:54 Sunny 19 -7.2 5 -15 54 54 W 6 9 30.22 1023 10 16.0934 0 0
6:54 pm 18:54 Clear 17 -8.3 6 -14.4 62 62 W 3 6 30.22 1024 10 16.0934 0 0
7:54 pm 19:54 Clear 17 -8.3 6 -14.4 62 62 Calm 30.24 1024 10 16.0934 0 0
8:54 pm 20:54 Clear 14 -10 6 -14.4 71 71 Calm 30.23 1024 10 16.0934 0 0
9:54 pm 21:54 Clear 15 -9.4 7 -13.9 70 70 Calm 30.22 1023 10 16.0934 0 0
10:54 pm 22:54 Clear 14 -10 6 -14.4 71 71 Calm 30.23 1024 10 16.0934 0 0
11:54 pm 23:54 Clear 12 -11.1 6 -14.4 77 77 Calm 30.22 1023 10 16.0934 0 0

Powered by AerisWeather